Clarinda, IA

6:35 AM CST on December 03, 2016 (GMT -0600)
Schenck

Weather History for KICL - January, 2014

Change the Weather History Date:

Saturday, January 25, 2014

  Actual Average Record
Temperature  
Mean Temperature 37 °F -  
Max Temperature 48 °F 33 °F 62 °F (2002)
Min Temperature 26 °F 15 °F -4 °F (2008)
Degree Days  
Heating Degree Days 28    
Moisture  
Dew Point 17 °F    
Average Humidity 53    
Maximum Humidity 87    
Minimum Humidity 30    
Precipitation  
Precipitation 0.00 in - - ()
Sea Level Pressure  
Sea Level Pressure 29.90 in    
Wind  
Wind Speed 17 mph (NW)    
Max Wind Speed 28 mph    
Max Gust Speed 37 mph    
Visibility 10 miles    
Events Rain    
Averages and records for this station are not official NWS values.
T = Trace of Precipitation, MM = Missing Value Source: NWS Daily Summary

Daily Weather History Graph

Daily Weather History Graph

Search for Another Location

Airport or City:

Trip Planner

Search our weather history database for the weather conditions in past years. The results will help you decide how hot, cold, wet, or windy it might be!

Date:

Astronomy

Jan. 25, 2014 Rise Set
Actual Time 7:36 AM CST 5:29 PM CST
Civil Twilight 7:06 AM CST 5:58 PM CST
Nautical Twilight 6:33 AM CST 6:31 PM CST
Astronomical Twilight 6:01 AM CST 7:04 PM CST
Moon 2:08 AM CST (1/25) 12:30 PM CST (1/25)
Length of Visible Light 10h 52m
Length of Day
9h 53m
Waning Crescent, 34% of the Moon is Illuminated
Jan 25
Waning Crescent
Jan 30
New
Feb 6
First Quarter
Feb 14
Full
Feb 22
Last Quarter

Hourly Weather History & Observations

Time (CST) Temp. Windchill Dew Point Humidity Pressure Visibility Wind Dir Wind Speed Gust Speed Precip Events Conditions
12:15 AM 48.2 °F - 33.8 °F 58% 29.74 in 10.0 mi NW 27.6 mph 36.8 mph N/A   Overcast
12:35 AM 46.4 °F 39.2 °F 33.8 °F 62% 29.75 in 10.0 mi NNW 18.4 mph 33.4 mph N/A   Overcast
12:55 AM 46.4 °F 38.5 °F 32.0 °F 57% 29.76 in 10.0 mi NW 21.9 mph 33.4 mph N/A   Overcast
1:15 AM 44.6 °F 36.9 °F 30.2 °F 57% 29.77 in 10.0 mi NW 18.4 mph 35.7 mph N/A   Overcast
1:35 AM 44.6 °F 36.1 °F 30.2 °F 57% 29.78 in 10.0 mi NW 21.9 mph 32.2 mph N/A   Overcast
1:55 AM 44.6 °F 35.3 °F 30.2 °F 57% 29.79 in 10.0 mi NW 26.5 mph 35.7 mph N/A   Overcast
2:15 AM 42.8 °F 34.0 °F 30.2 °F 61% 29.80 in 10.0 mi NW 20.7 mph 31.1 mph N/A   Overcast
2:35 AM 42.8 °F 34.3 °F 30.2 °F 61% 29.81 in 10.0 mi NW 19.6 mph 29.9 mph N/A   Overcast
2:55 AM 42.8 °F 34.5 °F 30.2 °F 61% 29.82 in 10.0 mi NW 18.4 mph - N/A   Mostly Cloudy
3:15 AM 41.0 °F 32.8 °F 32.0 °F 70% 29.82 in 10.0 mi NW 16.1 mph 27.6 mph N/A   Overcast
3:35 AM 41.0 °F 33.9 °F 32.0 °F 70% 29.83 in 10.0 mi NW 12.7 mph 19.6 mph N/A   Mostly Cloudy
3:55 AM 41.0 °F 33.5 °F 32.0 °F 70% 29.82 in 10.0 mi NW 13.8 mph - N/A   Mostly Cloudy
4:15 AM 41.0 °F 33.9 °F 32.0 °F 70% 29.84 in 10.0 mi NW 12.7 mph - N/A   Mostly Cloudy
4:35 AM 41.0 °F 32.2 °F 32.0 °F 70% 29.83 in 10.0 mi NW 18.4 mph 25.3 mph N/A   Overcast
4:55 AM 41.0 °F 33.5 °F 30.2 °F 65% 29.83 in 10.0 mi NW 13.8 mph 24.2 mph N/A   Overcast
5:15 AM 41.0 °F 34.3 °F 30.2 °F 65% 29.83 in 10.0 mi NW 11.5 mph 20.7 mph N/A   Overcast
5:35 AM 41.0 °F 33.9 °F 30.2 °F 65% 29.84 in 10.0 mi NW 12.7 mph 19.6 mph N/A   Overcast
5:55 AM 41.0 °F 33.1 °F 30.2 °F 65% 29.85 in 10.0 mi NW 15.0 mph 21.9 mph N/A   Overcast
6:15 AM 39.2 °F 31.6 °F 30.2 °F 70% 29.86 in 10.0 mi NW 12.7 mph 20.7 mph N/A   Overcast
6:35 AM 39.2 °F 30.5 °F 32.0 °F 75% 29.87 in 10.0 mi NW 16.1 mph 27.6 mph N/A   Overcast
6:55 AM 37.4 °F 28.9 °F 33.8 °F 87% 29.89 in 7.0 mi NW 13.8 mph - N/A Rain Light Rain
7:15 AM 37.4 °F 29.3 °F 33.8 °F 87% 29.91 in 10.0 mi NW 12.7 mph 18.4 mph N/A Rain Light Rain
7:35 AM 32.0 °F 20.5 °F 28.4 °F 87% 29.93 in 10.0 mi North 18.4 mph 25.3 mph N/A   Overcast
7:55 AM 32.0 °F 20.1 °F 24.8 °F 75% 29.95 in 10.0 mi North 19.6 mph 26.5 mph N/A   Overcast
8:15 AM 30.2 °F 17.1 °F 21.2 °F 69% 29.96 in 10.0 mi North 21.9 mph - N/A   Overcast
8:35 AM 30.2 °F 18.1 °F 21.2 °F 69% 29.98 in 10.0 mi North 18.4 mph 26.5 mph N/A   Overcast
8:55 AM 30.2 °F 18.9 °F 21.2 °F 69% 30.00 in 10.0 mi North 16.1 mph 24.2 mph N/A   Overcast
9:15 AM 26.6 °F 13.1 °F 15.8 °F 64% 30.02 in 10.0 mi North 19.6 mph 26.5 mph N/A   Overcast
9:35 AM 26.6 °F 13.1 °F 14.0 °F 59% 30.04 in 10.0 mi North 19.6 mph - N/A   Mostly Cloudy
9:55 AM 26.6 °F 14.7 °F 14.0 °F 59% 30.03 in 10.0 mi North 15.0 mph 25.3 mph N/A   Partly Cloudy
10:15 AM 28.4 °F 14.1 °F 14.0 °F 55% 30.04 in 10.0 mi North 24.2 mph 29.9 mph N/A   Clear
10:35 AM 28.4 °F 15.8 °F 12.2 °F 51% 30.05 in 10.0 mi NNW 18.4 mph 27.6 mph N/A   Clear
10:55 AM 28.4 °F 15.1 °F 12.2 °F 51% 30.06 in 10.0 mi NNW 20.7 mph - N/A   Clear
11:15 AM 30.2 °F 18.1 °F 10.4 °F 44% 30.07 in 10.0 mi NNW 18.4 mph 27.6 mph N/A   Clear
11:35 AM 30.2 °F 16.2 °F 3.2 °F 32% 30.07 in 10.0 mi NNW 25.3 mph - N/A   Clear
11:55 AM 30.2 °F 16.8 °F 5.0 °F 34% 30.06 in 10.0 mi NNW 23.0 mph 29.9 mph N/A   Clear
12:15 PM 30.2 °F 18.5 °F 3.2 °F 32% 30.07 in 10.0 mi NNW 17.3 mph 28.8 mph N/A   Clear
12:35 PM 30.2 °F 17.8 °F 3.2 °F 32% 30.08 in 10.0 mi NW 19.6 mph 31.1 mph N/A   Clear
12:55 PM 32.0 °F 19.8 °F 5.0 °F 32% 30.06 in 10.0 mi NNW 20.7 mph 27.6 mph N/A   Clear
1:15 PM 32.0 °F 20.8 °F 5.0 °F 32% 30.05 in 10.0 mi NW 17.3 mph 24.2 mph N/A   Clear
1:35 PM 32.0 °F 21.6 °F 3.2 °F 30% 30.05 in 10.0 mi NW 15.0 mph 27.6 mph N/A   Clear
1:55 PM 32.0 °F 23.6 °F 3.2 °F 30% 30.03 in 10.0 mi NW 10.4 mph 19.6 mph N/A   Clear
2:15 PM 32.0 °F 22.1 °F 6.8 °F 35% 30.03 in 10.0 mi NW 13.8 mph 20.7 mph N/A   Clear
2:35 PM 33.8 °F 24.3 °F 5.0 °F 30% 30.02 in 10.0 mi NW 13.8 mph - N/A   Clear
2:55 PM 33.8 °F 26.4 °F 5.0 °F 30% 30.01 in 10.0 mi NW 9.2 mph 17.3 mph N/A   Clear
3:15 PM 33.8 °F 25.8 °F 5.0 °F 30% 30.00 in 10.0 mi West 10.4 mph 21.9 mph N/A   Clear
3:35 PM 33.8 °F 26.4 °F 5.0 °F 30% 29.99 in 10.0 mi NW 9.2 mph 16.1 mph N/A   Clear
3:55 PM 33.8 °F 24.8 °F 5.0 °F 30% 29.99 in 10.0 mi WNW 12.7 mph - N/A   Clear
4:15 PM 33.8 °F 25.3 °F 5.0 °F 30% 30.00 in 10.0 mi WNW 11.5 mph - N/A   Clear
4:35 PM 32.0 °F 24.8 °F 5.0 °F 32% 29.99 in 10.0 mi WNW 8.1 mph - N/A   Clear
4:55 PM 32.0 °F 26.4 °F 6.8 °F 35% 29.97 in 10.0 mi WNW 5.8 mph - N/A   Clear
5:15 PM 30.2 °F - 8.6 °F 40% 29.96 in 10.0 mi Calm Calm - N/A   Clear
5:35 PM 30.2 °F - 8.6 °F 40% 29.95 in 10.0 mi Calm Calm - N/A   Mostly Cloudy
5:55 PM 28.4 °F 22.2 °F 12.2 °F 51% 29.93 in 10.0 mi SSE 5.8 mph - N/A   Overcast
6:15 PM 28.4 °F 23.3 °F 12.2 °F 51% 29.93 in 10.0 mi SSW 4.6 mph - N/A   Overcast
6:35 PM 28.4 °F 22.2 °F 12.2 °F 51% 29.93 in 10.0 mi South 5.8 mph - N/A   Overcast
6:55 PM 30.2 °F 25.4 °F 12.2 °F 47% 29.90 in 10.0 mi South 4.6 mph - N/A   Overcast
7:15 PM 30.2 °F 24.3 °F 12.2 °F 47% 29.88 in 10.0 mi SSE 5.8 mph - N/A   Mostly Cloudy
7:35 PM 30.2 °F 24.3 °F 10.4 °F 44% 29.88 in 10.0 mi South 5.8 mph - N/A   Scattered Clouds
7:55 PM 30.2 °F 22.6 °F 10.4 °F 44% 29.84 in 10.0 mi South 8.1 mph - N/A   Overcast
8:15 PM 30.2 °F 22.6 °F 10.4 °F 44% 29.84 in 10.0 mi South 8.1 mph - N/A   Overcast
9:15 PM 28.4 °F 19.7 °F 12.2 °F 51% 29.78 in 10.0 mi South 9.2 mph - N/A   Mostly Cloudy
9:35 PM 28.4 °F 19.7 °F 12.2 °F 51% 29.75 in 10.0 mi South 9.2 mph - N/A   Partly Cloudy
9:55 PM 28.4 °F 19.1 °F 12.2 °F 51% 29.73 in 10.0 mi South 10.4 mph - N/A   Partly Cloudy
10:15 PM 28.4 °F 18.5 °F 12.2 °F 51% 29.70 in 10.0 mi South 11.5 mph - N/A   Partly Cloudy
10:35 PM 30.2 °F 20.2 °F 12.2 °F 47% 29.68 in 10.0 mi South 12.7 mph - N/A   Clear
10:55 PM 30.2 °F 19.3 °F 14.0 °F 51% 29.66 in 10.0 mi South 15.0 mph - N/A   Clear
11:15 PM 30.2 °F 19.8 °F 15.8 °F 55% 29.64 in 10.0 mi South 13.8 mph - N/A   Clear
11:35 PM 32.0 °F 22.1 °F 17.6 °F 55% 29.61 in 10.0 mi South 13.8 mph 21.9 mph N/A   Mostly Cloudy
11:55 PM 32.0 °F 21.6 °F 21.2 °F 64% 29.59 in 10.0 mi South 15.0 mph 21.9 mph N/A   Overcast